Location: ???????
(55.4362°N, 38.1183°E)
Time: 19:01:15
(UTC+00:00)

Cosmos 1932 - Pass Details

Date: 23 October 2021
Orbit: 943 x 987 km, 65.0° (Epoch: 28 November)

Event Time Altitude Azimuth Distance (km) Brightness Sun altitude
Rises 17:17:20 0° 312° (NW) 3,620 8.5 -27.1°
Reaches altitude 10° 17:20:07 10° 303° (WNW) 2,674 7.7 -27.5°
Maximum altitude 17:25:32 32° 243° (WSW) 1,561 5.8 -28.2°
Enters shadow 17:28:52 20° 196° (SSW) 2,054 6.1 -28.6°
